Location: Payette
(44.0782°N, 116.9338°W)
Time: 01:25:07
(UTC-06:00)

Envisat - Visible Passes

Search period start: 25 March 2019 00:00
Search period end: 04 April 2019 00:00
Orbit: 764 x 766 km, 98.2° (Epoch: 24 March)

Date Brightness Start Highest point End Pass type
(mag) Time Alt. Az. Time Alt. Az. Time Alt. Az.
25 Mar 4.1 20:48:53 10° S 20:53:46 49° W 20:58:43 10° NNW visible
26 Mar 6.0 21:54:14 10° WSW 21:56:36 13° W 21:58:59 10° WNW visible
27 Mar 5.1 21:15:06 10° SSW 21:19:28 29° W 21:23:51 10° NW visible
28 Mar 3.6 20:37:31 10° S 20:42:32 62° W 20:47:35 10° NNW visible
29 Mar 5.8 21:42:01 10° SW 21:45:15 17° W 21:48:29 10° NW visible
30 Mar 4.7 21:03:32 10° SSW 21:08:10 36° W 21:12:50 10° NNW visible
01 Apr 5.6 21:30:07 10° SW 21:33:54 21° W 21:37:44 10° NW visible
02 Apr 4.3 20:52:03 10° S 20:56:53 45° W 21:01:46 10° NNW visible
03 Apr 6.1 21:57:52 10° WSW 21:59:45 12° W 22:01:39 10° WNW visible
